Charlotte, MI

11:26 AM EST on December 04, 2016 (GMT -0500)
Charlotte

Weather History for KFPK - December, 2012

Change the Weather History Date:

Friday, December 21, 2012

  Actual Average (KLAN) Record (KLAN)
Temperature  
Mean Temperature 33 °F 27 °F  
Max Temperature 35 °F 33 °F 61 °F (1967)
Min Temperature 31 °F 21 °F -15 °F (1864)
Degree Days  
Heating Degree Days 32 38  
Month to date heating degree days 741  
Since 1 July heating degree days 2155  
Cooling Degree Days 0 0  
Month to date cooling degree days 0  
Year to date cooling degree days 625  
Moisture  
Dew Point 29 °F    
Average Humidity 86    
Maximum Humidity 97    
Minimum Humidity 68    
Precipitation  
Precipitation 0.02 in 0.06 in 1.44 in (1905)
Month to date precipitation 1.30  
Year to date precipitation 31.20  
Snow  
Snow 0.00 in 0.50 in 8.00 in (1870)
Month to date snowfall 8.4  
Since 1 July snowfall 12.2  
Snow Depth -    
Sea Level Pressure  
Sea Level Pressure 29.53 in    
Wind  
Wind Speed 12 mph (NW)    
Max Wind Speed 22 mph    
Max Gust Speed 37 mph    
Visibility 6 miles    
Events Snow    
T = Trace of Precipitation, MM = Missing Value Source: NWS Daily Summary

Daily Weather History Graph

Daily Weather History Graph

Search for Another Location

Airport or City:

Trip Planner

Search our weather history database for the weather conditions in past years. The results will help you decide how hot, cold, wet, or windy it might be!

Date:

Astronomy

Dec. 21, 2012 Rise Set
Actual Time 8:06 AM EST 5:09 PM EST
Civil Twilight 7:33 AM EST 5:41 PM EST
Nautical Twilight 6:58 AM EST 6:17 PM EST
Astronomical Twilight 6:23 AM EST 6:51 PM EST
Moon 1:00 PM EST (12/21) 1:46 AM EST (12/21)
Length of Visible Light 10h 07m
Length of Day
9h 03m
Waxing Gibbous, 64% of the Moon is Illuminated
Dec 21
Waxing Gibbous
Dec 28
Full
Jan 4
Last Quarter
Jan 11
New
Jan 18
First Quarter

Hourly Weather History & Observations

Time (EST) Temp. Windchill Dew Point Humidity Pressure Visibility Wind Dir Wind Speed Gust Speed Precip Events Conditions
12:15 AM 35.2 °F 28.1 °F 32.2 °F 89% 29.12 in 10.0 mi South 9.2 mph - N/A   Overcast
12:35 AM 35.1 °F 28.6 °F 32.2 °F 89% 29.12 in 10.0 mi South 8.1 mph - N/A   Overcast
12:55 AM 34.9 °F 32.0 °F 32.4 °F 91% 29.14 in 10.0 mi South 3.5 mph - N/A   Overcast
1:15 AM 34.9 °F 32.0 °F 32.5 °F 91% 29.14 in 10.0 mi South 3.5 mph - N/A   Overcast
1:35 AM 34.7 °F - 32.7 °F 92% 29.14 in 10.0 mi Calm Calm - N/A   Overcast
1:55 AM 34.7 °F - 32.9 °F 93% 29.15 in 10.0 mi Calm Calm - N/A   Overcast
2:15 AM 34.7 °F - 32.9 °F 93% 29.16 in 10.0 mi Calm Calm - N/A   Overcast
2:35 AM 34.7 °F - 32.9 °F 93% 29.16 in 10.0 mi Calm Calm - N/A   Overcast
2:55 AM 34.7 °F - 33.1 °F 94% 29.17 in 7.0 mi Calm Calm - N/A Snow Light Snow
3:15 AM 34.9 °F - 33.4 °F 94% 29.19 in 3.0 mi Calm Calm - N/A Snow Light Snow
3:35 AM 34.5 °F 31.6 °F 33.3 °F 95% 29.20 in 1.5 mi West 3.5 mph - N/A Snow Light Snow
3:55 AM 34.2 °F 29.0 °F 33.3 °F 97% 29.20 in 2.0 mi West 5.8 mph - N/A Snow Light Snow
4:15 AM 34.2 °F 25.7 °F 33.4 °F 97% 29.21 in 2.5 mi West 11.5 mph - N/A Snow Light Snow
4:35 AM 34.7 °F 25.9 °F 33.8 °F 97% 29.22 in 4.0 mi WNW 12.7 mph 20.7 mph 0.01 in Snow Light Snow
4:55 AM 34.3 °F 24.6 °F 33.4 °F 97% 29.24 in 5.0 mi NW 15.0 mph 23.0 mph 0.01 in Snow Light Snow
5:15 AM 34.0 °F 22.1 °F 32.9 °F 96% 29.25 in 3.0 mi NW 21.9 mph 33.4 mph N/A Snow Light Snow
5:35 AM 33.4 °F 23.1 °F 32.0 °F 94% 29.27 in 3.0 mi NW 16.1 mph 31.1 mph N/A Snow Light Snow
6:15 AM 33.1 °F 22.6 °F 32.0 °F 96% 29.30 in 2.5 mi NW 16.1 mph 36.8 mph N/A Snow Light Snow
6:35 AM 32.9 °F 22.4 °F 31.8 °F 96% 29.32 in 5.0 mi WNW 16.1 mph 29.9 mph N/A Snow Light Snow
6:55 AM 32.5 °F 21.5 °F 31.3 °F 95% 29.33 in 1.8 mi NW 17.3 mph 26.5 mph N/A Snow Light Snow
7:15 AM 32.2 °F 21.1 °F 31.1 °F 96% 29.35 in 2.5 mi NW 17.3 mph 28.8 mph N/A Snow Light Snow
7:35 AM 32.2 °F 22.3 °F 31.1 °F 96% 29.36 in 2.0 mi WNW 13.8 mph 19.6 mph N/A Snow Light Snow
7:55 AM 32.0 °F 20.5 °F 30.9 °F 96% 29.38 in 1.2 mi WNW 18.4 mph 25.3 mph N/A Snow Light Snow
8:15 AM 32.0 °F 20.8 °F 30.4 °F 94% 29.39 in 1.0 mi NW 17.3 mph 25.3 mph N/A Snow Light Snow
8:35 AM 31.8 °F 19.6 °F 30.2 °F 94% 29.40 in 0.5 mi WNW 20.7 mph 26.5 mph N/A Snow Light Snow
8:55 AM 31.6 °F 19.3 °F 30.2 °F 94% 29.41 in 1.0 mi NW 20.7 mph 28.8 mph N/A Snow Light Snow
9:15 AM 32.0 °F 21.2 °F 30.6 °F 94% 29.43 in 1.2 mi NW 16.1 mph 24.2 mph N/A Snow Light Snow
9:35 AM 31.6 °F 20.4 °F 30.0 °F 94% 29.44 in 1.0 mi WNW 17.3 mph 27.6 mph N/A Snow Light Snow
9:55 AM 31.8 °F 19.3 °F 29.5 °F 91% 29.46 in 2.0 mi NW 21.9 mph 29.9 mph N/A Snow Light Snow
10:15 AM 31.8 °F 21.8 °F 29.1 °F 90% 29.47 in 2.0 mi NW 13.8 mph 27.6 mph N/A Snow Light Snow
10:35 AM 32.0 °F 20.1 °F 29.1 °F 89% 29.49 in 2.0 mi NW 19.6 mph 29.9 mph N/A Snow Light Snow
10:55 AM 32.0 °F 20.8 °F 29.3 °F 90% 29.50 in 2.5 mi NW 17.3 mph 28.8 mph N/A Snow Light Snow
11:15 AM 32.0 °F 20.1 °F 29.7 °F 91% 29.51 in 1.5 mi NW 19.6 mph 27.6 mph N/A Snow Light Snow
11:35 AM 32.0 °F 20.8 °F 29.8 °F 92% 29.52 in 1.5 mi NW 17.3 mph 25.3 mph N/A Snow Light Snow
11:55 AM 32.4 °F 21.3 °F 29.8 °F 90% 29.53 in 2.5 mi NW 17.3 mph 25.3 mph N/A Snow Light Snow
12:15 PM 32.5 °F 22.3 °F 29.1 °F 87% 29.54 in 2.0 mi NW 15.0 mph 31.1 mph N/A Snow Light Snow
12:35 PM 32.5 °F 20.5 °F 28.9 °F 87% 29.55 in 2.0 mi NW 20.7 mph 29.9 mph N/A Snow Light Snow
12:55 PM 32.4 °F 21.7 °F 29.3 °F 88% 29.56 in 1.5 mi NW 16.1 mph 25.3 mph N/A Snow Light Snow
1:15 PM 32.9 °F 22.4 °F 29.3 °F 87% 29.57 in 2.5 mi NW 16.1 mph 26.5 mph N/A Snow Light Snow
1:35 PM 32.9 °F 24.1 °F 30.2 °F 90% 29.58 in 1.5 mi NW 11.5 mph 21.9 mph N/A Snow Light Snow
1:55 PM 32.9 °F 21.3 °F 30.2 °F 90% 29.59 in 2.5 mi NW 19.6 mph 26.5 mph N/A Snow Light Snow
2:15 PM 33.1 °F 23.0 °F 29.8 °F 88% 29.60 in 7.0 mi NW 15.0 mph 25.3 mph N/A Snow Light Snow
2:35 PM 33.1 °F 21.9 °F 29.3 °F 86% 29.61 in 10.0 mi NW 18.4 mph 31.1 mph N/A   Overcast
2:55 PM 33.8 °F 23.2 °F 28.4 °F 81% 29.62 in 10.0 mi NW 17.3 mph 31.1 mph N/A   Overcast
3:15 PM 33.8 °F 24.3 °F 28.2 °F 80% 29.64 in 10.0 mi NW 13.8 mph 26.5 mph N/A   Overcast
3:35 PM 34.0 °F 23.4 °F 28.2 °F 79% 29.65 in 10.0 mi NW 17.3 mph 33.4 mph 0.01 in   Overcast
3:55 PM 34.0 °F 25.0 °F 27.9 °F 78% 29.67 in 10.0 mi NW 12.7 mph 29.9 mph 0.01 in   Overcast
4:15 PM 34.2 °F 23.6 °F 27.5 °F 77% 29.68 in 10.0 mi NW 17.3 mph 31.1 mph N/A   Overcast
4:35 PM 34.0 °F 23.0 °F 28.0 °F 79% 29.69 in 10.0 mi NW 18.4 mph 29.9 mph N/A   Overcast
4:55 PM 33.8 °F 23.9 °F 28.4 °F 81% 29.71 in 10.0 mi NW 15.0 mph 29.9 mph N/A   Overcast
5:15 PM 34.0 °F 23.8 °F 28.2 °F 79% 29.72 in 10.0 mi NW 16.1 mph 27.6 mph N/A   Overcast
5:35 PM 33.8 °F 22.8 °F 28.2 °F 80% 29.74 in 10.0 mi NW 18.4 mph 31.1 mph N/A   Overcast
5:55 PM 33.8 °F 22.2 °F 27.7 °F 78% 29.76 in 10.0 mi NW 20.7 mph 32.2 mph N/A   Overcast
6:15 PM 33.8 °F 22.5 °F 27.9 °F 79% 29.77 in 10.0 mi NW 19.6 mph 36.8 mph N/A   Overcast
6:35 PM 33.8 °F 23.2 °F 27.5 °F 78% 29.78 in 10.0 mi NW 17.3 mph 32.2 mph N/A   Overcast
6:55 PM 33.8 °F 22.2 °F 27.3 °F 77% 29.79 in 10.0 mi WNW 20.7 mph 32.2 mph N/A   Overcast
7:15 PM 33.8 °F 21.9 °F 27.0 °F 76% 29.80 in 10.0 mi NW 21.9 mph 33.4 mph N/A   Overcast
7:35 PM 33.4 °F 22.0 °F 27.0 °F 77% 29.81 in 10.0 mi NW 19.6 mph 31.1 mph N/A   Overcast
7:55 PM 33.4 °F 23.5 °F 26.6 °F 76% 29.83 in 10.0 mi NW 15.0 mph 32.2 mph N/A   Overcast
8:15 PM 33.3 °F 21.2 °F 27.0 °F 78% 29.84 in 10.0 mi NW 21.9 mph 31.1 mph N/A   Overcast
8:35 PM 33.1 °F 21.5 °F 26.6 °F 77% 29.85 in 10.0 mi NW 19.6 mph 26.5 mph N/A   Overcast
8:55 PM 33.1 °F 20.9 °F 26.4 °F 77% 29.86 in 10.0 mi NW 21.9 mph 29.9 mph N/A   Overcast
9:15 PM 33.1 °F 22.2 °F 26.1 °F 75% 29.87 in 10.0 mi NW 17.3 mph 27.6 mph N/A   Overcast
9:35 PM 33.1 °F 23.4 °F 26.4 °F 77% 29.88 in 10.0 mi NW 13.8 mph 21.9 mph N/A   Overcast
9:55 PM 32.9 °F 22.4 °F 26.1 °F 76% 29.89 in 10.0 mi NW 16.1 mph 28.8 mph N/A   Overcast
10:15 PM 32.9 °F 21.3 °F 25.7 °F 75% 29.90 in 10.0 mi NW 19.6 mph 29.9 mph N/A   Overcast
10:35 PM 32.9 °F 22.8 °F 25.7 °F 75% 29.91 in 10.0 mi NW 15.0 mph 20.7 mph N/A   Overcast
10:55 PM 32.5 °F 23.2 °F 25.7 °F 76% 29.91 in 10.0 mi NW 12.7 mph 21.9 mph N/A   Overcast
11:15 PM 32.5 °F 22.7 °F 25.5 °F 75% 29.92 in 10.0 mi NW 13.8 mph 19.6 mph N/A   Overcast
11:35 PM 32.5 °F 21.9 °F 25.0 °F 74% 29.93 in 10.0 mi NW 16.1 mph 26.5 mph N/A   Overcast
11:55 PM 32.5 °F 23.2 °F 23.0 °F 68% 29.94 in 10.0 mi NW 12.7 mph 31.1 mph N/A   Overcast